RYR8KM EGSS-LIBD

Flight info

Callsign RYR8KM
Flight time 2h 48m
Altitude 37000
Route CLN M84 KONAN DCT KOK UL607 FERDI DCT REMBA DCT RITAX DCT SUTAL DCT GTQ DCT DEVDI DCT RIPUS DCT GERSA DCT SOSON DCT ODINA DCT DESIP DCT KOXUD DCT LOGDI DCT LOMED DCT NIKMA DCT EVULI DCT ERIKA DCT AMSOR DCT BUMOK
Aircraft B38M/M-SDE1FGHILORVWXY/HB1

Departure

Time 2026-04-23 15:36
Airport London Stansted Airport (EGSS)

Arrival

Time 2026-04-23 18:25
Airport Bari Karol Wojtyła International Airport (LIBD)
Time Latitude Longitude Altitude Speed Heading
2026-04-23 15:04 51.89238 0.25958 -5 ft 0 kts 43°
2026-04-23 15:21 51.89230 0.25947 359 ft 4 kts 43°
2026-04-23 15:22 51.89214 0.25923 354 ft 4 kts 35°
2026-04-23 15:22 51.89196 0.25916 359 ft 4 kts 324°
2026-04-23 15:22 51.89178 0.25944 358 ft 3 kts 313°
2026-04-23 15:22 51.89176 0.25949 361 ft 0 kts 313°
2026-04-23 15:25 51.89193 0.25918 354 ft 9 kts 313°
2026-04-23 15:26 51.89263 0.25797 356 ft 20 kts 313°
2026-04-23 15:26 51.89349 0.25648 354 ft 18 kts 313°
2026-04-23 15:26 51.89415 0.25485 357 ft 14 kts 304°
2026-04-23 15:26 51.89377 0.25352 353 ft 16 kts 223°
2026-04-23 15:27 51.89273 0.25191 355 ft 25 kts 229°
2026-04-23 15:27 51.89154 0.24944 351 ft 28 kts 222°
2026-04-23 15:27 51.89011 0.24731 354 ft 28 kts 223°
2026-04-23 15:27 51.88862 0.24510 354 ft 29 kts 222°
2026-04-23 15:28 51.88715 0.24290 351 ft 27 kts 223°
2026-04-23 15:28 51.88574 0.24078 351 ft 28 kts 223°
2026-04-23 15:28 51.88425 0.23858 358 ft 30 kts 223°
2026-04-23 15:28 51.88276 0.23631 351 ft 30 kts 223°
2026-04-23 15:29 51.88121 0.23399 351 ft 31 kts 223°
2026-04-23 15:29 51.87963 0.23160 351 ft 31 kts 223°
2026-04-23 15:29 51.87814 0.22938 351 ft 29 kts 223°
2026-04-23 15:29 51.87664 0.22712 355 ft 30 kts 223°
2026-04-23 15:30 51.87538 0.22522 356 ft 26 kts 223°
2026-04-23 15:30 51.87426 0.22357 346 ft 19 kts 222°
2026-04-23 15:30 51.87409 0.22193 348 ft 13 kts 301°
2026-04-23 15:30 51.87439 0.22139 340 ft 0 kts 313°
2026-04-23 15:34 51.87444 0.22130 340 ft 6 kts 313°
2026-04-23 15:34 51.87500 0.22035 337 ft 13 kts 323°
2026-04-23 15:35 51.87564 0.22074 337 ft 5 kts 43°
2026-04-23 15:35 51.87587 0.22109 337 ft 0 kts 43°
2026-04-23 15:35 51.87619 0.22157 338 ft 29 kts 43°
2026-04-23 15:35 51.87961 0.22671 348 ft 102 kts 42°
2026-04-23 15:36 51.88634 0.23668 426 ft 150 kts 43°
2026-04-23 15:36 51.89439 0.24890 993 ft 165 kts 45°
2026-04-23 15:36 51.90280 0.26171 1850 ft 163 kts 46°
2026-04-23 15:36 51.91129 0.27501 2424 ft 182 kts 51°
2026-04-23 15:37 51.91670 0.29456 2912 ft 204 kts 82°
2026-04-23 15:37 51.91491 0.31837 3409 ft 225 kts 108°
2026-04-23 15:37 51.90852 0.34189 3538 ft 232 kts 114°
2026-04-23 15:37 51.90147 0.36637 3614 ft 244 kts 114°
2026-04-23 15:38 51.89418 0.39154 3743 ft 250 kts 114°
2026-04-23 15:38 51.88674 0.41710 3860 ft 252 kts 114°
2026-04-23 15:38 51.87924 0.44273 3953 ft 253 kts 114°
2026-04-23 15:38 51.87170 0.46849 3982 ft 254 kts 114°
2026-04-23 15:39 51.86417 0.49423 4010 ft 253 kts 114°
2026-04-23 15:39 51.85664 0.51992 3998 ft 252 kts 114°
2026-04-23 15:39 51.84913 0.54548 4019 ft 252 kts 114°
2026-04-23 15:39 51.84160 0.57106 4018 ft 252 kts 114°
2026-04-23 15:40 51.83410 0.59678 4043 ft 255 kts 111°
2026-04-23 15:40 51.83073 0.62452 4555 ft 253 kts 90°
2026-04-23 15:40 51.83106 0.65309 4705 ft 253 kts 88°
2026-04-23 15:40 51.83174 0.68158 4855 ft 253 kts 87°
2026-04-23 15:41 51.83107 0.71016 5104 ft 257 kts 106°
2026-04-23 15:41 51.82284 0.73549 6086 ft 258 kts 126°
2026-04-23 15:41 51.81045 0.75714 6932 ft 265 kts 132°
2026-04-23 15:41 51.79756 0.77873 7803 ft 270 kts 131°
2026-04-23 15:42 51.78438 0.80071 8613 ft 274 kts 131°
2026-04-23 15:42 51.77099 0.82297 9461 ft 278 kts 131°
2026-04-23 15:42 51.75740 0.84553 10305 ft 283 kts 131°
2026-04-23 15:42 51.74344 0.86868 10933 ft 295 kts 131°
2026-04-23 15:43 51.72872 0.89315 11331 ft 312 kts 131°
2026-04-23 15:43 51.71328 0.91879 11866 ft 324 kts 131°
2026-04-23 15:43 51.69756 0.94478 12705 ft 325 kts 131°
2026-04-23 15:43 51.68166 0.97099 13465 ft 329 kts 131°
2026-04-23 15:44 51.66557 0.99746 14245 ft 332 kts 131°
2026-04-23 15:44 51.64935 1.02411 14940 ft 335 kts 131°
2026-04-23 15:44 51.63293 1.05106 15643 ft 338 kts 132°
2026-04-23 15:44 51.61642 1.07815 16351 ft 341 kts 132°
2026-04-23 15:45 51.59982 1.10533 17036 ft 343 kts 133°
2026-04-23 15:45 51.58302 1.13283 17720 ft 346 kts 133°
2026-04-23 15:45 51.56610 1.16048 18378 ft 349 kts 134°
2026-04-23 15:45 51.54901 1.18837 18965 ft 352 kts 134°
2026-04-23 15:46 51.53178 1.21647 19525 ft 354 kts 135°
2026-04-23 15:46 51.51444 1.24470 20072 ft 356 kts 135°
2026-04-23 15:46 51.49696 1.27313 20608 ft 359 kts 135°
2026-04-23 15:46 51.47937 1.30172 21140 ft 362 kts 135°
2026-04-23 15:47 51.46163 1.33050 21672 ft 364 kts 135°
2026-04-23 15:47 51.44379 1.35942 22205 ft 366 kts 136°
2026-04-23 15:47 51.42712 1.39057 22718 ft 370 kts 127°
2026-04-23 15:47 51.41181 1.42384 23255 ft 372 kts 129°
2026-04-23 15:48 51.39609 1.45698 23788 ft 375 kts 129°
2026-04-23 15:48 51.38016 1.49017 24257 ft 377 kts 129°
2026-04-23 15:48 51.36410 1.52340 24730 ft 378 kts 130°
2026-04-23 15:48 51.34795 1.55670 25187 ft 380 kts 130°
2026-04-23 15:49 51.33171 1.59010 25645 ft 381 kts 130°
2026-04-23 15:49 51.31540 1.62358 26108 ft 382 kts 130°
2026-04-23 15:49 51.29903 1.65717 26536 ft 384 kts 130°
2026-04-23 15:49 51.28256 1.69090 26973 ft 386 kts 130°
2026-04-23 15:50 51.26601 1.72475 27398 ft 387 kts 130°
2026-04-23 15:50 51.24940 1.75869 27811 ft 389 kts 130°
2026-04-23 15:50 51.23271 1.79273 28229 ft 390 kts 130°
2026-04-23 15:50 51.21596 1.82686 28628 ft 392 kts 130°
2026-04-23 15:51 51.19932 1.86071 29015 ft 393 kts 130°
2026-04-23 15:51 51.18218 1.89555 29409 ft 395 kts 130°
2026-04-23 15:51 51.16542 1.92956 29785 ft 397 kts 130°
2026-04-23 15:51 51.14839 1.96422 30156 ft 399 kts 128°
2026-04-23 15:52 51.13493 2.00298 30519 ft 405 kts 112°
2026-04-23 15:52 51.12923 2.04722 30856 ft 412 kts 99°
2026-04-23 15:52 51.12643 2.09282 31106 ft 415 kts 100°
2026-04-23 15:52 51.12365 2.13867 31378 ft 417 kts 99°
2026-04-23 15:53 51.12101 2.18476 31668 ft 419 kts 99°
2026-04-23 15:53 51.11843 2.23106 31944 ft 421 kts 99°
2026-04-23 15:53 51.11587 2.27761 32224 ft 423 kts 99°
2026-04-23 15:53 51.11329 2.32427 32491 ft 425 kts 99°
2026-04-23 15:54 51.11068 2.37123 32762 ft 427 kts 99°
2026-04-23 15:54 51.10805 2.41832 33056 ft 428 kts 99°
2026-04-23 15:54 51.10540 2.46539 33424 ft 427 kts 99°
2026-04-23 15:54 51.10274 2.51236 33797 ft 426 kts 99°
2026-04-23 15:55 51.10006 2.55926 34162 ft 425 kts 99°
2026-04-23 15:55 51.09737 2.60607 34518 ft 424 kts 99°
2026-04-23 15:55 51.09416 2.65255 34808 ft 421 kts 105°
2026-04-23 15:55 51.08637 2.69711 35091 ft 418 kts 109°
2026-04-23 15:56 51.07841 2.74162 35308 ft 419 kts 109°
2026-04-23 15:56 51.07042 2.78614 35561 ft 419 kts 109°
2026-04-23 15:56 51.06235 2.83074 35817 ft 420 kts 109°
2026-04-23 15:56 51.05424 2.87532 36059 ft 420 kts 109°
2026-04-23 15:57 51.04612 2.91988 36293 ft 420 kts 109°
2026-04-23 15:57 51.03796 2.96451 36534 ft 420 kts 109°
2026-04-23 15:57 51.02980 3.00907 36743 ft 421 kts 109°
2026-04-23 15:57 51.02160 3.05372 36957 ft 421 kts 109°
2026-04-23 15:58 51.01338 3.09835 37165 ft 421 kts 109°
2026-04-23 15:58 51.00514 3.14299 37350 ft 422 kts 109°
2026-04-23 15:58 50.99698 3.18712 37419 ft 423 kts 109°
2026-04-23 15:59 50.98042 3.27631 37387 ft 420 kts 109°
2026-04-23 15:59 50.96382 3.36529 37383 ft 421 kts 109°
2026-04-23 16:00 50.94715 3.45422 37378 ft 420 kts 109°
2026-04-23 16:00 50.93044 3.54291 37376 ft 420 kts 110°
2026-04-23 16:01 50.91372 3.63137 37374 ft 419 kts 110°
2026-04-23 16:01 50.89691 3.71976 37374 ft 419 kts 110°
2026-04-23 16:02 50.88006 3.80804 37373 ft 418 kts 110°
2026-04-23 16:02 50.86317 3.89610 37370 ft 418 kts 110°
2026-04-23 16:03 50.84624 3.98401 37389 ft 418 kts 110°
2026-04-23 16:03 50.82926 4.07171 37372 ft 416 kts 110°
2026-04-23 16:04 50.81223 4.15929 37378 ft 417 kts 109°
2026-04-23 16:04 50.79515 4.24674 37373 ft 416 kts 110°
2026-04-23 16:05 50.78089 4.31943 37375 ft 417 kts 109°
2026-04-23 16:05 50.76074 4.42166 37373 ft 417 kts 109°
2026-04-23 16:06 50.74344 4.50905 37375 ft 417 kts 109°
2026-04-23 16:06 50.72607 4.59638 37372 ft 417 kts 109°
2026-04-23 16:07 50.70863 4.68367 37370 ft 417 kts 109°
2026-04-23 16:07 50.69111 4.77095 37367 ft 417 kts 109°
2026-04-23 16:08 50.67352 4.85837 37365 ft 418 kts 109°
2026-04-23 16:08 50.66275 4.90067 37339 ft 415 kts 122°
2026-04-23 16:08 50.64511 4.93638 37369 ft 414 kts 134°
2026-04-23 16:09 50.60489 5.00193 37357 ft 417 kts 134°
2026-04-23 16:09 50.56381 5.06650 37345 ft 418 kts 135°
2026-04-23 16:10 50.52234 5.13070 37355 ft 419 kts 135°
2026-04-23 16:10 50.48076 5.19476 37346 ft 419 kts 135°
2026-04-23 16:11 50.43906 5.25882 37353 ft 420 kts 135°
2026-04-23 16:11 50.39723 5.32291 37346 ft 420 kts 135°
2026-04-23 16:12 50.35535 5.38691 37352 ft 421 kts 135°
2026-04-23 16:12 50.31333 5.45096 37343 ft 421 kts 135°
2026-04-23 16:13 50.27128 5.51490 37342 ft 423 kts 135°
2026-04-23 16:13 50.20794 5.61087 37343 ft 423 kts 135°
2026-04-23 16:14 50.16558 5.67485 37328 ft 424 kts 135°
2026-04-23 16:14 50.12316 5.73878 37329 ft 425 kts 135°
2026-04-23 16:15 50.08072 5.80195 37324 ft 426 kts 139°
2026-04-23 16:15 50.03202 5.85100 37340 ft 402 kts 146°
2026-04-23 16:16 50.00882 5.87369 37342 ft 387 kts 146°
2026-04-23 16:16 49.98613 5.89572 37333 ft 383 kts 146°
2026-04-23 16:16 49.94105 5.93930 37320 ft 382 kts 146°
2026-04-23 16:17 49.89585 5.98286 37313 ft 383 kts 146°
2026-04-23 16:17 49.85055 6.02642 37308 ft 383 kts 146°
2026-04-23 16:18 49.81250 6.06293 37299 ft 384 kts 146°
2026-04-23 16:18 49.76706 6.10644 37304 ft 385 kts 146°
2026-04-23 16:19 49.72145 6.15002 37293 ft 386 kts 146°
2026-04-23 16:19 49.67537 6.19395 37298 ft 393 kts 146°
2026-04-23 16:20 49.62838 6.23864 37295 ft 400 kts 146°
2026-04-23 16:20 49.58054 6.28403 37298 ft 408 kts 146°
2026-04-23 16:21 49.53177 6.33021 37297 ft 415 kts 146°
2026-04-23 16:21 49.48210 6.37713 37296 ft 423 kts 146°
2026-04-23 16:22 49.42879 6.41734 37288 ft 432 kts 153°
2026-04-23 16:22 49.37340 6.45523 37301 ft 439 kts 154°
2026-04-23 16:23 49.31737 6.49331 37295 ft 441 kts 154°
2026-04-23 16:23 49.26156 6.53114 37295 ft 441 kts 154°
2026-04-23 16:24 49.20529 6.56918 37287 ft 443 kts 154°
2026-04-23 16:24 49.14899 6.60714 37297 ft 443 kts 154°
2026-04-23 16:25 49.09251 6.64513 37288 ft 444 kts 154°
2026-04-23 16:25 49.03594 6.68309 37295 ft 444 kts 154°
2026-04-23 16:26 48.97935 6.72125 37292 ft 445 kts 154°
2026-04-23 16:26 48.92283 6.75995 37296 ft 446 kts 154°
2026-04-23 16:27 48.86618 6.79857 37287 ft 447 kts 154°
2026-04-23 16:27 48.80947 6.83714 37296 ft 447 kts 154°
2026-04-23 16:28 48.75258 6.87574 37289 ft 448 kts 154°
2026-04-23 16:28 48.69564 6.91426 37290 ft 449 kts 154°
2026-04-23 16:29 48.63857 6.95280 37287 ft 450 kts 154°
2026-04-23 16:29 48.58136 6.99132 37288 ft 450 kts 154°
2026-04-23 16:30 48.52401 7.02985 37287 ft 452 kts 154°
2026-04-23 16:30 48.46690 7.06812 37289 ft 453 kts 154°
2026-04-23 16:31 48.40929 7.10662 37283 ft 453 kts 154°
2026-04-23 16:31 48.35160 7.14508 37281 ft 454 kts 154°
2026-04-23 16:32 48.29369 7.18359 37275 ft 456 kts 154°
2026-04-23 16:32 48.23571 7.22206 37275 ft 456 kts 154°
2026-04-23 16:33 48.17750 7.26058 37266 ft 457 kts 154°
2026-04-23 16:33 48.11939 7.29894 37275 ft 458 kts 154°
2026-04-23 16:34 48.06081 7.33751 37258 ft 459 kts 155°
2026-04-23 16:34 48.00233 7.37591 37271 ft 460 kts 154°
2026-04-23 16:35 47.94365 7.41436 37264 ft 460 kts 155°
2026-04-23 16:35 47.88499 7.45269 37269 ft 461 kts 155°
2026-04-23 16:36 47.82620 7.49104 37247 ft 461 kts 155°
2026-04-23 16:36 47.76751 7.52947 37245 ft 461 kts 152°
2026-04-23 16:37 47.74093 7.55553 37222 ft 456 kts 135°
2026-04-23 16:37 47.71995 7.59036 37251 ft 454 kts 126°
2026-04-23 16:37 47.68780 7.65228 37241 ft 457 kts 125°
2026-04-23 16:38 47.64976 7.72778 37244 ft 457 kts 124°
2026-04-23 16:38 47.61190 7.80368 37249 ft 458 kts 124°
2026-04-23 16:39 47.57426 7.87906 37253 ft 459 kts 124°
2026-04-23 16:39 47.53598 7.95552 37260 ft 460 kts 124°
2026-04-23 16:40 47.49781 8.03156 37258 ft 460 kts 124°
2026-04-23 16:40 47.47943 8.06809 37264 ft 461 kts 124°
2026-04-23 16:41 47.44083 8.14466 37259 ft 462 kts 125°
2026-04-23 16:41 47.40238 8.22071 37266 ft 463 kts 125°
2026-04-23 16:42 47.36407 8.29631 37264 ft 463 kts 125°
2026-04-23 16:42 47.32536 8.37246 37267 ft 464 kts 125°
2026-04-23 16:43 47.28584 8.44779 37256 ft 466 kts 133°
2026-04-23 16:43 47.26068 8.47770 37261 ft 467 kts 148°
2026-04-23 16:43 47.23111 8.49757 37261 ft 469 kts 164°
2026-04-23 16:44 47.16655 8.51251 37258 ft 472 kts 173°
2026-04-23 16:44 47.10120 8.52301 37264 ft 473 kts 175°
2026-04-23 16:45 47.03568 8.53264 37267 ft 473 kts 175°
2026-04-23 16:45 46.97008 8.54211 37267 ft 474 kts 175°
2026-04-23 16:46 46.90440 8.55159 37254 ft 474 kts 175°
2026-04-23 16:46 46.83867 8.56102 37265 ft 476 kts 175°
2026-04-23 16:47 46.77276 8.57046 37217 ft 475 kts 175°
2026-04-23 16:47 46.70699 8.57987 37237 ft 477 kts 175°
2026-04-23 16:48 46.64095 8.58928 37224 ft 476 kts 175°
2026-04-23 16:48 46.57495 8.59866 37211 ft 477 kts 176°
2026-04-23 16:49 46.50883 8.60805 37193 ft 477 kts 176°
2026-04-23 16:49 46.44266 8.61741 37211 ft 479 kts 176°
2026-04-23 16:50 46.37625 8.62679 37139 ft 478 kts 176°
2026-04-23 16:50 46.31041 8.63606 37202 ft 477 kts 177°
2026-04-23 16:51 46.24399 8.64539 37118 ft 481 kts 176°
2026-04-23 16:51 46.17779 8.65467 37152 ft 482 kts 176°
2026-04-23 16:52 46.11158 8.66900 37123 ft 484 kts 161°
2026-04-23 16:52 46.05035 8.71028 37111 ft 488 kts 154°
2026-04-23 16:53 45.99356 8.76351 37111 ft 489 kts 134°
2026-04-23 16:53 45.95255 8.82001 37079 ft 489 kts 147°
2026-04-23 16:54 45.92059 8.85064 37137 ft 490 kts 145°
2026-04-23 16:54 45.86471 8.90708 37151 ft 493 kts 145°
2026-04-23 16:55 45.80855 8.96341 37129 ft 493 kts 145°
2026-04-23 16:55 45.75223 9.01976 37147 ft 494 kts 145°
2026-04-23 16:56 45.69578 9.07609 37146 ft 495 kts 146°
2026-04-23 16:56 45.63963 9.13307 37134 ft 496 kts 143°
2026-04-23 16:57 45.58429 9.19212 37131 ft 497 kts 144°
2026-04-23 16:57 45.52879 9.25083 37133 ft 498 kts 144°
2026-04-23 16:58 45.47303 9.30965 37130 ft 499 kts 144°
2026-04-23 16:58 45.41720 9.36838 37132 ft 500 kts 144°
2026-04-23 16:59 45.36116 9.42721 37133 ft 500 kts 144°
2026-04-23 16:59 45.30509 9.48590 37142 ft 501 kts 144°
2026-04-23 17:00 45.24885 9.54463 37142 ft 502 kts 144°
2026-04-23 17:00 45.19260 9.60325 37145 ft 503 kts 144°
2026-04-23 17:01 45.13927 9.66747 37139 ft 504 kts 139°
2026-04-23 17:01 45.08662 9.73326 37135 ft 505 kts 139°
2026-04-23 17:02 45.03397 9.79900 37128 ft 505 kts 139°
2026-04-23 17:02 44.98122 9.86469 37147 ft 505 kts 139°
2026-04-23 17:03 44.93724 9.91935 37133 ft 507 kts 139°
2026-04-23 17:03 44.88429 9.98498 37137 ft 506 kts 139°
2026-04-23 17:04 44.83144 10.05033 37155 ft 505 kts 139°
2026-04-23 17:04 44.77857 10.11554 37150 ft 505 kts 139°
2026-04-23 17:05 44.72574 10.18055 37156 ft 504 kts 140°
2026-04-23 17:05 44.67229 10.24441 37154 ft 504 kts 140°
2026-04-23 17:06 44.61881 10.30817 37160 ft 504 kts 140°
2026-04-23 17:06 44.56534 10.37179 37162 ft 504 kts 140°
2026-04-23 17:07 44.51186 10.43526 37156 ft 504 kts 140°
2026-04-23 17:07 44.45869 10.49822 37162 ft 504 kts 140°
2026-04-23 17:08 44.40518 10.56140 37169 ft 503 kts 141°
2026-04-23 17:08 44.35163 10.62449 37169 ft 503 kts 140°
2026-04-23 17:09 44.29814 10.68735 37169 ft 503 kts 141°
2026-04-23 17:09 44.24456 10.75016 37177 ft 503 kts 141°
2026-04-23 17:10 44.19101 10.81277 37175 ft 502 kts 141°
2026-04-23 17:10 44.13748 10.87522 37168 ft 502 kts 141°
2026-04-23 17:11 44.08399 10.93746 37166 ft 501 kts 141°
2026-04-23 17:11 44.03061 10.99987 37149 ft 501 kts 138°
2026-04-23 17:12 43.97899 11.06497 37138 ft 501 kts 138°
2026-04-23 17:12 43.92720 11.12956 37130 ft 500 kts 139°
2026-04-23 17:13 43.87539 11.19398 37125 ft 500 kts 139°
2026-04-23 17:13 43.82360 11.25824 37123 ft 500 kts 139°
2026-04-23 17:14 43.77180 11.32235 37130 ft 499 kts 139°
2026-04-23 17:14 43.71998 11.38634 37134 ft 499 kts 139°
2026-04-23 17:15 43.66821 11.45010 37144 ft 498 kts 139°
2026-04-23 17:15 43.61641 11.51374 37156 ft 498 kts 139°
2026-04-23 17:16 43.56503 11.57671 37166 ft 497 kts 139°
2026-04-23 17:16 43.51328 11.63999 37155 ft 497 kts 139°
2026-04-23 17:17 43.46150 11.70316 37165 ft 497 kts 139°
2026-04-23 17:17 43.40977 11.76612 37158 ft 496 kts 139°
2026-04-23 17:18 43.33221 11.86023 37172 ft 496 kts 139°
2026-04-23 17:19 43.28054 11.92274 37161 ft 495 kts 139°
2026-04-23 17:19 43.22889 11.98508 37164 ft 494 kts 139°
2026-04-23 17:20 43.17725 12.04725 37151 ft 493 kts 139°
2026-04-23 17:21 43.07412 12.17115 37148 ft 492 kts 138°
2026-04-23 17:21 43.00051 12.26915 37144 ft 492 kts 136°
2026-04-23 17:22 42.92661 12.36652 37138 ft 492 kts 136°
2026-04-23 17:23 42.85274 12.46351 37145 ft 491 kts 136°
2026-04-23 17:24 42.77879 12.56024 37131 ft 491 kts 136°
2026-04-23 17:24 42.70492 12.65655 37136 ft 490 kts 136°
2026-04-23 17:25 42.63103 12.75255 37122 ft 490 kts 136°
2026-04-23 17:26 42.53258 12.87993 37100 ft 488 kts 137°
2026-04-23 17:27 42.45889 12.97491 37101 ft 487 kts 136°
2026-04-23 17:27 42.40976 13.03804 37109 ft 486 kts 137°
2026-04-23 17:28 42.36076 13.10087 37117 ft 486 kts 137°
2026-04-23 17:28 42.31170 13.16364 37117 ft 485 kts 137°
2026-04-23 17:29 42.26267 13.22622 37131 ft 485 kts 137°
2026-04-23 17:29 42.21518 13.28668 37180 ft 454 kts 133°
2026-04-23 17:30 42.20003 13.30599 37170 ft 451 kts 133°
2026-04-23 17:30 42.12421 13.40229 37151 ft 449 kts 133°
2026-04-23 17:31 42.07868 13.45996 37151 ft 450 kts 133°
2026-04-23 17:31 42.03309 13.51761 37158 ft 450 kts 133°
2026-04-23 17:32 41.98775 13.57482 37156 ft 450 kts 133°
2026-04-23 17:32 41.94204 13.63238 37159 ft 450 kts 133°
2026-04-23 17:33 41.89628 13.68988 37151 ft 451 kts 133°
2026-04-23 17:33 41.85047 13.74732 37149 ft 451 kts 133°
2026-04-23 17:34 41.80458 13.80476 37141 ft 451 kts 133°
2026-04-23 17:35 41.73573 13.89069 37143 ft 451 kts 133°
2026-04-23 17:35 41.66677 13.97651 37148 ft 452 kts 134°
2026-04-23 17:36 41.62132 14.03446 37115 ft 448 kts 126°
2026-04-23 17:36 41.58453 14.10106 37124 ft 446 kts 123°
2026-04-23 17:37 41.54770 14.16784 37131 ft 447 kts 123°
2026-04-23 17:38 41.49243 14.26809 37125 ft 447 kts 122°
2026-04-23 17:38 41.47621 14.30306 37130 ft 441 kts 110°
2026-04-23 17:38 41.46730 14.34153 37143 ft 433 kts 98°
2026-04-23 17:39 41.45058 14.41932 37129 ft 440 kts 110°
2026-04-23 17:39 41.42079 14.48972 37106 ft 426 kts 104°
2026-04-23 17:39 41.41541 14.52782 37097 ft 416 kts 87°
2026-04-23 17:40 41.41611 14.56614 36864 ft 414 kts 88°
2026-04-23 17:40 41.41423 14.60440 36481 ft 412 kts 92°
2026-04-23 17:40 41.41095 14.64168 35950 ft 410 kts 94°
2026-04-23 17:40 41.40677 14.67917 35372 ft 408 kts 95°
2026-04-23 17:41 41.40214 14.71632 34808 ft 405 kts 95°
2026-04-23 17:41 41.39243 14.78963 33654 ft 399 kts 95°
2026-04-23 17:41 41.38747 14.82583 33025 ft 395 kts 95°
2026-04-23 17:42 41.37761 14.89718 31821 ft 389 kts 96°
2026-04-23 17:42 41.37271 14.93245 31245 ft 386 kts 96°
2026-04-23 17:42 41.36783 14.96748 30666 ft 383 kts 96°
2026-04-23 17:43 41.36298 15.00218 30103 ft 380 kts 96°
2026-04-23 17:43 41.35816 15.03660 29454 ft 377 kts 96°
2026-04-23 17:43 41.35340 15.07057 29025 ft 369 kts 96°
2026-04-23 17:43 41.34872 15.10390 28512 ft 364 kts 96°
2026-04-23 17:44 41.34408 15.13683 27994 ft 360 kts 96°
2026-04-23 17:44 41.33949 15.16938 27481 ft 356 kts 96°
2026-04-23 17:44 41.33038 15.23369 26443 ft 351 kts 96°
2026-04-23 17:45 41.32585 15.26561 25937 ft 350 kts 96°
2026-04-23 17:45 41.31682 15.32891 25099 ft 344 kts 96°
2026-04-23 17:45 41.31239 15.35990 24742 ft 338 kts 96°
2026-04-23 17:46 41.30371 15.42047 24047 ft 329 kts 96°
2026-04-23 17:46 41.29943 15.45021 23713 ft 327 kts 96°
2026-04-23 17:46 41.29517 15.47981 23315 ft 324 kts 96°
2026-04-23 17:47 41.29095 15.50907 22967 ft 320 kts 96°
2026-04-23 17:47 41.28677 15.53795 22646 ft 316 kts 96°
2026-04-23 17:47 41.27856 15.59460 22022 ft 308 kts 96°
2026-04-23 17:48 41.27452 15.62234 21723 ft 304 kts 96°
2026-04-23 17:48 41.27054 15.64970 21429 ft 299 kts 96°
2026-04-23 17:48 41.26660 15.67668 21136 ft 295 kts 96°
2026-04-23 17:48 41.26271 15.70334 20852 ft 293 kts 96°
2026-04-23 17:49 41.25877 15.73020 20558 ft 299 kts 96°
2026-04-23 17:49 41.25476 15.75750 20262 ft 303 kts 96°
2026-04-23 17:49 41.25071 15.78505 19960 ft 304 kts 96°
2026-04-23 17:49 41.24665 15.81265 19672 ft 304 kts 96°
2026-04-23 17:50 41.24259 15.84016 19382 ft 303 kts 96°
2026-04-23 17:50 41.23586 15.88571 18896 ft 302 kts 96°
2026-04-23 17:50 41.23181 15.91303 18600 ft 301 kts 96°
2026-04-23 17:51 41.22646 15.94907 18180 ft 300 kts 96°
2026-04-23 17:51 41.22243 15.97611 17865 ft 297 kts 96°
2026-04-23 17:51 41.21453 16.02909 17286 ft 288 kts 96°
2026-04-23 17:52 41.21192 16.04660 17095 ft 285 kts 96°
2026-04-23 17:52 41.20427 16.09765 16546 ft 283 kts 96°
2026-04-23 17:52 41.20039 16.12353 16258 ft 288 kts 96°
2026-04-23 17:53 41.19248 16.17605 15696 ft 290 kts 96°
2026-04-23 17:53 41.18853 16.20224 15411 ft 288 kts 96°
2026-04-23 17:53 41.18461 16.22815 15135 ft 285 kts 96°
2026-04-23 17:54 41.18074 16.25376 14858 ft 281 kts 96°
2026-04-23 17:54 41.17690 16.27904 14589 ft 278 kts 96°
2026-04-23 17:54 41.16978 16.32589 14062 ft 282 kts 97°
2026-04-23 17:55 41.16187 16.37780 13458 ft 290 kts 97°
2026-04-23 17:55 41.15802 16.40374 13161 ft 288 kts 94°
2026-04-23 17:55 41.15942 16.42996 12788 ft 281 kts 70°
2026-04-23 17:56 41.16599 16.45424 12509 ft 279 kts 68°
2026-04-23 17:56 41.17928 16.50249 11935 ft 278 kts 67°
2026-04-23 17:56 41.18602 16.52650 11652 ft 278 kts 67°
2026-04-23 17:57 41.19271 16.55017 11379 ft 278 kts 67°
2026-04-23 17:57 41.19959 16.57449 11069 ft 278 kts 67°
2026-04-23 17:57 41.21311 16.62213 10490 ft 277 kts 67°
2026-04-23 17:58 41.21997 16.64634 10246 ft 275 kts 67°
2026-04-23 17:58 41.22668 16.67004 10017 ft 274 kts 67°
2026-04-23 17:58 41.23329 16.69339 9702 ft 274 kts 67°
2026-04-23 17:58 41.23997 16.71700 9393 ft 273 kts 67°
2026-04-23 17:59 41.24662 16.74052 9100 ft 271 kts 67°
2026-04-23 17:59 41.25320 16.76386 8812 ft 270 kts 67°
2026-04-23 17:59 41.25976 16.78712 8523 ft 267 kts 67°
2026-04-23 17:59 41.26628 16.81023 8239 ft 266 kts 67°
2026-04-23 18:00 41.27276 16.83319 7934 ft 265 kts 67°
2026-04-23 18:00 41.27924 16.85612 7593 ft 265 kts 67°
2026-04-23 18:00 41.28567 16.87895 7338 ft 261 kts 67°
2026-04-23 18:00 41.29199 16.90136 7195 ft 258 kts 67°
2026-04-23 18:01 41.29828 16.92366 7044 ft 257 kts 67°
2026-04-23 18:01 41.30453 16.94588 6877 ft 255 kts 67°
2026-04-23 18:01 41.31075 16.96803 6812 ft 256 kts 66°
2026-04-23 18:01 41.31697 16.99024 6729 ft 256 kts 67°
2026-04-23 18:02 41.32310 17.01213 6640 ft 249 kts 67°
2026-04-23 18:02 41.32902 17.03330 6543 ft 239 kts 67°
2026-04-23 18:02 41.33468 17.05361 6444 ft 229 kts 67°
2026-04-23 18:02 41.34011 17.07308 6326 ft 220 kts 67°
2026-04-23 18:03 41.34532 17.09179 6202 ft 211 kts 66°
2026-04-23 18:03 41.35029 17.11003 5922 ft 211 kts 70°
2026-04-23 18:03 41.35052 17.12958 5616 ft 219 kts 103°
2026-04-23 18:03 41.34231 17.14710 5263 ft 232 kts 135°
2026-04-23 18:04 41.32793 17.15751 4944 ft 240 kts 158°
2026-04-23 18:04 41.31212 17.16494 4579 ft 243 kts 156°
2026-04-23 18:04 41.29624 17.17261 4314 ft 242 kts 158°
2026-04-23 18:04 41.28045 17.18020 4044 ft 241 kts 161°
2026-04-23 18:05 41.26392 17.18156 3934 ft 241 kts 195°
2026-04-23 18:05 41.24933 17.17161 3943 ft 236 kts 227°
2026-04-23 18:05 41.24011 17.15420 3971 ft 229 kts 251°
2026-04-23 18:05 41.23397 17.13465 3987 ft 230 kts 253°
2026-04-23 18:06 41.22800 17.11487 3981 ft 231 kts 254°
2026-04-23 18:06 41.22220 17.09511 3986 ft 229 kts 254°
2026-04-23 18:06 41.21657 17.07560 3976 ft 228 kts 255°
2026-04-23 18:06 41.21256 17.05547 3832 ft 224 kts 264°
2026-04-23 18:07 41.20953 17.03515 3685 ft 219 kts 264°
2026-04-23 18:07 41.20651 17.01555 3458 ft 215 kts 264°
2026-04-23 18:07 41.20348 16.99628 3232 ft 211 kts 263°
2026-04-23 18:07 41.19957 16.97753 3002 ft 211 kts 256°
2026-04-23 18:08 41.19619 16.96566 2869 ft 205 kts 255°
2026-04-23 18:08 41.18974 16.94280 2625 ft 195 kts 256°
2026-04-23 18:08 41.18512 16.92620 2433 ft 188 kts 256°
2026-04-23 18:08 41.18070 16.91029 2233 ft 180 kts 257°
2026-04-23 18:09 41.17652 16.89508 2095 ft 174 kts 257°
2026-04-23 18:09 41.17228 16.88011 1926 ft 173 kts 257°
2026-04-23 18:09 41.16808 16.86526 1683 ft 171 kts 257°
2026-04-23 18:09 41.16409 16.85121 1414 ft 155 kts 256°
2026-04-23 18:10 41.16046 16.83837 1195 ft 144 kts 257°
2026-04-23 18:10 41.15698 16.82598 999 ft 143 kts 257°
2026-04-23 18:10 41.15348 16.81366 826 ft 142 kts 256°
2026-04-23 18:10 41.15006 16.80156 635 ft 139 kts 256°
2026-04-23 18:11 41.14672 16.78968 393 ft 137 kts 255°
2026-04-23 18:11 41.14334 16.77773 217 ft 141 kts 256°
2026-04-23 18:11 41.13973 16.76533 202 ft 134 kts 255°
2026-04-23 18:11 41.13658 16.75381 639 ft 135 kts 260°
2026-04-23 18:12 41.13319 16.74146 1214 ft 150 kts 255°
2026-04-23 18:12 41.13009 16.72762 1932 ft 163 kts 272°
2026-04-23 18:12 41.13269 16.71346 2175 ft 157 kts 307°
2026-04-23 18:12 41.14102 16.70465 2446 ft 156 kts 342°
2026-04-23 18:13 41.15177 16.70455 3015 ft 162 kts 14°
2026-04-23 18:13 41.16161 16.71330 3333 ft 184 kts 43°
2026-04-23 18:13 41.17032 16.72704 3415 ft 202 kts 42°
2026-04-23 18:13 41.18222 16.73679 3470 ft 211 kts 15°
2026-04-23 18:14 41.19689 16.74074 3529 ft 219 kts
2026-04-23 18:14 41.21233 16.74393 3604 ft 224 kts
2026-04-23 18:14 41.22762 16.74796 3700 ft 225 kts 20°
2026-04-23 18:14 41.24047 16.75972 3826 ft 228 kts 43°
2026-04-23 18:15 41.24978 16.77675 3942 ft 234 kts 58°
2026-04-23 18:15 41.25755 16.79582 3988 ft 235 kts 57°
2026-04-23 18:15 41.26528 16.81485 3993 ft 234 kts 57°
2026-04-23 18:15 41.27282 16.83402 4000 ft 235 kts 62°
2026-04-23 18:16 41.27868 16.85439 3999 ft 236 kts 65°
2026-04-23 18:16 41.28438 16.87479 3995 ft 236 kts 64°
2026-04-23 18:16 41.29019 16.89534 3998 ft 237 kts 64°
2026-04-23 18:17 41.30185 16.93607 3989 ft 236 kts 64°
2026-04-23 18:17 41.30756 16.95654 4001 ft 236 kts 65°
2026-04-23 18:17 41.31326 16.97693 3981 ft 235 kts 65°
2026-04-23 18:17 41.31883 16.99739 3998 ft 237 kts 70°
2026-04-23 18:18 41.31874 17.01936 3967 ft 246 kts 103°
2026-04-23 18:18 41.30927 17.03867 3996 ft 257 kts 136°
2026-04-23 18:18 41.29325 17.04934 3995 ft 263 kts 166°
2026-04-23 18:18 41.27517 17.05407 3988 ft 266 kts 167°
2026-04-23 18:19 41.25714 17.05902 3994 ft 261 kts 167°
2026-04-23 18:19 41.23973 17.06217 3986 ft 248 kts 185°
2026-04-23 18:19 41.22393 17.05485 3905 ft 239 kts 219°
2026-04-23 18:19 41.21338 17.03883 3682 ft 226 kts 250°
2026-04-23 18:20 41.20870 17.01960 3523 ft 214 kts 261°
2026-04-23 18:20 41.20526 17.00086 3393 ft 203 kts 262°
2026-04-23 18:20 41.20184 16.98301 3199 ft 199 kts 257°
2026-04-23 18:20 41.19683 16.96586 2903 ft 199 kts 255°
2026-04-23 18:21 41.19184 16.94893 2643 ft 194 kts 255°
2026-04-23 18:21 41.18714 16.93258 2477 ft 185 kts 256°
2026-04-23 18:21 41.18273 16.91699 2339 ft 176 kts 257°
2026-04-23 18:21 41.17851 16.90189 2166 ft 174 kts 258°
2026-04-23 18:22 41.17432 16.88698 1952 ft 174 kts 257°
2026-04-23 18:22 41.17015 16.87240 1721 ft 165 kts 257°
2026-04-23 18:22 41.16628 16.85882 1472 ft 149 kts 257°
2026-04-23 18:22 41.16274 16.84635 1250 ft 144 kts 258°
2026-04-23 18:23 41.16037 16.83794 1097 ft 145 kts 257°
2026-04-23 18:23 41.15228 16.80941 652 ft 141 kts 258°
2026-04-23 18:24 41.14564 16.78586 312 ft 133 kts 256°
2026-04-23 18:24 41.14240 16.77438 154 ft 132 kts 256°
2026-04-23 18:24 41.13968 16.76461 127 ft 83 kts 249°
2026-04-23 18:25 41.13775 16.75785 140 ft 17 kts 243°
2026-04-23 18:25 41.13688 16.75697 143 ft 11 kts 214°
2026-04-23 18:25 41.13615 16.75641 142 ft 11 kts 184°
2026-04-23 18:25 41.13569 16.75719 140 ft 12 kts 78°
2026-04-23 18:26 41.13600 16.75831 140 ft 14 kts 69°
2026-04-23 18:26 41.13624 16.75912 139 ft 4 kts 70°
2026-04-23 18:26 41.13635 16.75953 139 ft 0 kts 70°
2026-04-23 18:27 41.13639 16.75969 139 ft 4 kts 70°
2026-04-23 18:27 41.13645 16.76009 138 ft 3 kts 104°
2026-04-23 18:27 41.13614 16.76051 138 ft 12 kts 140°
2026-04-23 18:28 41.13553 16.76146 139 ft 14 kts 93°
2026-04-23 18:28 41.13578 16.76254 139 ft 11 kts 70°
2026-04-23 18:28 41.13607 16.76356 139 ft 13 kts 69°
2026-04-23 18:28 41.13634 16.76453 139 ft 8 kts 69°
2026-04-23 18:29 41.13660 16.76466 139 ft 5 kts 353°
2026-04-23 18:29 41.13680 16.76458 139 ft 3 kts 341°
2026-04-23 18:29 41.13693 16.76459 138 ft 1 kts 15°
2026-04-23 18:29 41.13697 16.76460 138 ft 0 kts 19°